Regional Weather Roundup
Issued by NWS Green Bay, WI

Home | Current Version | Previous Version | Graphics & Text | Print | Product List | Glossary Off
Versions: 1 2 3 4 5 6 7 8 9 10 11 12 13 14 15 16 17 18 19 20 21 22 23 24 25 26 27 28 29 30 31 32 33 34 35 36 37 38 39 40 41 42 43 44 45 46 47 48 49 50

000
ASUS43 KGRB 310710
RWRGRB

NORTH-CENTRAL AND NORTHEAST WISCONSIN REGIONAL WEATHER ROUNDUP
NATIONAL WEATHER SERVICE GREEN BAY WI
200 AM CDT FRI OCT 31 2014

WIZ005-009-010>012-018-019-310800-
NORTH CENTRAL WISCONSIN

CITY           SKY/WX    TMP DP  RH WIND       PRES   REMARKS
IRONWOOD       CLOUDY    30  25  80 N12G20    30.25R
MANITOWISH WTR FLURRIES  28  25  89 N12G18    30.20R
ARBOR VITAE    FLURRIES  32  28  85 N17G30    30.17R
EAGLE RIVER    LGT SNOW  30  27  90 N14G29    30.14R
LAND O LAKES   FLURRIES  31  27  88 N17G25    30.16R
RHINELANDER    LGT SNOW  29  26  89 N12G29    30.14R FOG
PHILLIPS       CLOUDY    29  25  84 N13G22    30.21R
ANTIGO         FLURRIES  32  30  91 N21G26    30.08R
TOMAHAWK       CLOUDY    30  26  84 N17G24    30.17R
MERRILL        SNOW      31  29  94 N14G24    30.14R VSB 1/2
$$

WIZ013-073-310800-
NORTHEAST WISCONSIN

CITY           SKY/WX    TMP DP  RH WIND       PRES   REMARKS
IRON MOUNTAIN  CLOUDY    34  29  82 N15G29    30.06R
MARINETTE      CLOUDY    37  30  75 N13G21    30.01R
OCONTO         CLOUDY    38  31  76 NW9G16    30.03R
$$

WIZ017-030-035>037-045-310800-
CENTRAL WISCONSIN

CITY           SKY/WX    TMP DP  RH WIND       PRES   REMARKS
MEDFORD        CLOUDY    30  26  85 N20G30    30.17R
WAUSAU         LGT SNOW  31  29  92 N17G31    30.12R VSB 3/4
MOSINEE        LGT SNOW  32  30  93 NW17G23   30.12R VSB 1
MARSHFIELD     LGT SNOW  31  27  85 NW22G30   30.16R FOG
WISC RAPIDS    FLURRIES  34  25  69 NW17G28   30.15R
STEVENS POINT  LGT SNOW  32  27  84 NW14G25   30.12R
WAUPACA        CLOUDY    38  28  67 NW14G24   30.08R
SHAWANO        CLOUDY    39  31  73 NW15      30.06R
CLINTONVILLE   CLOUDY    36  30  80 NW9G22    30.06S
$$

WIZ038-039-048-051-310800-
FOX VALLEY

CITY           SKY/WX    TMP DP  RH WIND       PRES   REMARKS
NWS GREEN BAY  CLOUDY    39  32  76 NW14      30.04R
APPLETON       CLOUDY    36  30  80 NW15G25   30.05R
OSHKOSH        CLOUDY    39  30  70 NW16G24   30.05R
FOND DU LAC    CLOUDY    39  30  70 NW17G24   30.05R
$$

WIZ022-050-052-310800-
EAST CENTRAL WISCONSIN

CITY           SKY/WX    TMP DP  RH WIND       PRES   REMARKS
STURGEON BAY   CLOUDY    39  30  70 N20G25    30.00R
MANITOWOC      CLOUDY    41  33  73 NW21      30.00S
SHEBOYGAN      CLOUDY    41  30  65 NW20G25   30.01R
$$

LMZ563-521-522-541>543-310800-
LAKESHORE

STATION/POSITION TIME  TEMP    WIND        PRES    VSBY  WAVE
                       AIR SEA DIR/SP/G                  HT/PER
                 (UTC) (F)     (DEG/KT/KT) (MB)    (MI)  (FT/S)
SHEBOYGAN LKSHOR 0700   42 50  310/ 17/ 24 1016.7R
KEWAUNEE LKSHORE 0600   41     310/ 11/ 16 1014.7R
NORTHPORT PIER   0700   41     340/ 29/ 34 1014.9R
N MID LAKE BUOY  0700   41 51  330/ 23/ 27 1013.5F         3/ 4
CHAMBERS ISLAND  0700   40     310/ 18/ 25 1015.6S
MENOMINEE LKSHOR 0600   40     310/ 16/ 20 1016.3R
$$



USA.gov is the U.S. government's official web portal to all federal, state and local government web resources and services.